Location: McCall
(45.0000°N, 116.0000°W)
Time: 19:34:23
(UTC-06:00)

Amateur Radio Satellites - All Passes

Search period start: 29 August 2015 19:04
Search period end: 30 August 2015 19:04
Location: McCall, 45.0000°N, 116.0000°W

Satellite Date Start Highest point End Downlink Frequencies (MHz)
Time Altitude Azimuth
Cubesat XI-IV 29 Aug 19:06:51 19:12:11 86° 75° (ENE) 19:17:33 437.490
Cosmos 2499 29 Aug 19:14:41 19:19:12 15° 286° (WNW) 19:23:05 435.465 / 435.565
AO-7 29 Aug 19:15:36 19:17:36 11° 279° (W) 19:18:50 29.400- 29.500
HO-68 29 Aug 19:17:50 19:21:46 16° 50° (NE) 19:26:01 435.675
RS-15 29 Aug 19:43:54 19:54:35 50° 322° (NW) 20:05:43 29.354- 29.394
BRITE-PL 29 Aug 19:50:42 19:54:38 35° 68° (ENE) 19:58:53 437.365/2234.400
CUTE-I 29 Aug 19:53:10 19:58:08 39° 263° (W) 20:03:06 437.470
MOZHAYETS 4 29 Aug 19:59:06 20:01:00 12° 300° (WNW) 20:02:42
AIST 1 29 Aug 20:00:16 20:04:15 36° 75° (ENE) 20:08:16
PRISM 29 Aug 20:01:17 20:03:29 14° 90° (E) 20:05:51 437.425
O/OREOS (USA 219) 29 Aug 20:03:45 20:07:43 31° 106° (ESE) 20:11:46 437.305
CUBESAT XI-V 29 Aug 20:06:42 20:11:22 83° 282° (WNW) 20:16:01 437.345
SEEDS 29 Aug 20:12:33 20:14:12 12° 62° (ENE) 20:16:03 437.485
AIST 2 29 Aug 20:23:10 20:25:09 13° 329° (NNW) 20:27:00 435.215
CINEMA 3 29 Aug 20:24:37 20:27:13 15° 60° (ENE) 20:30:03 145.822/145.860
GOMX 1 29 Aug 20:31:27 20:35:48 53° 72° (ENE) 20:40:30 467.674
STRAND 1 29 Aug 20:35:42 20:40:40 50° 100° (E) 20:45:37 437.568
COMPASS 1 29 Aug 20:37:20 20:40:03 17° 65° (ENE) 20:42:52 437.405
AAUSAT CUBESAT 2 29 Aug 20:49:24 20:52:21 19° 66° (ENE) 20:55:24 437.432
Cosmos 2491 29 Aug 20:50:25 20:58:50 50° 72° (ENE) 21:07:19 435.465 / 435.565
Cubesat XI-IV 29 Aug 20:50:29 20:53:06 13° 274° (W) 20:55:25 437.490
DOVE 4 29 Aug 20:56:32 21:01:01 59° 73° (ENE) 21:05:51 437.250
HO-68 29 Aug 21:01:17 21:08:23 70° 70° (ENE) 21:15:33 435.675
YUBILEINY 29 Aug 21:03:30 21:09:47 24° 80° (E) 21:16:26 435.215
CUTE 1.7 + AOD 2 29 Aug 21:05:56 21:10:06 51° 73° (ENE) 21:14:17 437.475
CANX-2 29 Aug 21:19:24 21:23:43 80° 76° (ENE) 21:28:02 2200.000
BRITE-PL 29 Aug 21:29:44 21:33:19 24° 269° (W) 21:37:03 437.365/2234.400
DELFI C3 29 Aug 21:30:53 21:33:17 16° 64° (ENE) 21:35:48 145.870
PRISM 29 Aug 21:35:17 21:39:16 52° 288° (WNW) 21:43:15 437.425
AIST 1 29 Aug 21:38:24 21:41:42 21° 272° (W) 21:44:55
Oscar 11 29 Aug 21:38:34 21:42:19 29° 68° (ENE) 21:46:08 145.826/435.025
O/OREOS (USA 219) 29 Aug 21:43:05 21:47:08 31° 304° (NW) 21:51:13 437.305
SEEDS 29 Aug 21:45:12 21:49:28 75° 258° (WSW) 21:53:44 437.485
CUBESAT XI-V 29 Aug 21:46:46 21:48:07 11° 301° (WNW) 21:49:14 437.345
HUMSAT D 29 Aug 21:48:07 21:48:59 11° 60° (ENE) 21:50:04 437.325/437.525
CINEMA 3 29 Aug 21:59:08 22:03:47 75° 258° (WSW) 22:08:43 145.822/145.860
RS-15 29 Aug 22:01:07 22:10:33 29° 354° (N) 22:20:19 29.354- 29.394
CUBEBUG 2 29 Aug 22:05:15 22:09:48 61° 73° (ENE) 22:14:31 437.445
COMPASS 1 29 Aug 22:11:16 22:15:22 49° 261° (W) 22:19:28 437.405
GOMX 1 29 Aug 22:11:24 22:14:26 17° 273° (W) 22:17:26 467.674
STRAND 1 29 Aug 22:15:33 22:19:35 23° 297° (WNW) 22:23:30 437.568
ZACube-1 29 Aug 22:15:45 22:20:06 47° 72° (ENE) 22:24:32 437.345
UWE-3 29 Aug 22:17:09 22:21:41 64° 74° (ENE) 22:26:21 435.000/436.395/437.385
FUNcube-1 29 Aug 22:22:10 22:26:34 53° 72° (ENE) 22:31:04 145.935
AAUSAT CUBESAT 2 29 Aug 22:23:41 22:27:41 42° 262° (W) 22:31:41 437.432
50 SAT 29 Aug 22:27:38 22:28:33 11° 62° (ENE) 22:29:39 437.505
DOVE 4 29 Aug 22:36:21 22:39:20 16° 273° (W) 22:42:13 437.250
CUTE 1.7 + AOD 2 29 Aug 22:43:38 22:46:22 16° 271° (W) 22:48:55 437.475
Cosmos 2491 29 Aug 22:47:38 22:55:36 40° 273° (W) 23:03:26 435.465 / 435.565
HO-68 29 Aug 22:51:04 22:56:49 24° 270° (W) 23:02:22 435.675
ESTCUBE 1 29 Aug 22:55:14 22:57:54 16° 63° (ENE) 23:00:45 437.505/2401.250
YUBILEINY 29 Aug 22:56:55 23:05:44 80° 281° (W) 23:14:37 435.215
CANX-2 29 Aug 22:59:46 23:00:17 10° 274° (W) 23:00:31 2200.000
DX 1 29 Aug 23:02:34 23:06:31 36° 69° (ENE) 23:10:32 434.975-435.025
DELFI C3 29 Aug 23:04:01 23:07:59 50° 261° (W) 23:11:56 145.870
Oscar 11 29 Aug 23:14:41 23:18:29 28° 266° (W) 23:22:15 145.826/435.025
AISAT 29 Aug 23:15:28 23:19:23 33° 68° (ENE) 23:23:22 437.250
BEESAT 3 29 Aug 23:17:12 23:18:11 11° 29° (NNE) 23:19:15 437.485
UKube-1 29 Aug 23:18:35 23:22:43 48° 71° (ENE) 23:26:54 .
HUMSAT D 29 Aug 23:19:44 23:24:04 89° 78° (ENE) 23:28:26 437.325/437.525
UNISAT 6 29 Aug 23:20:47 23:23:58 19° 90° (E) 23:27:13 437.425
CUBEBUG 1 29 Aug 23:23:40 23:27:05 24° 66° (ENE) 23:30:36 437.445
BEESAT 2 29 Aug 23:26:02 23:26:47 10° 28° (NNE) 23:27:38 435.950
Cosmos 2504 29 Aug 23:41:08 23:47:55 32° 83° (E) 23:55:14 435.465 / 435.565
QB50P2 29 Aug 23:41:56 23:42:45 11° 86° (E) 23:43:50 145.880/145.840
VELOX 1 29 Aug 23:43:53 23:48:13 61° 73° (ENE) 23:52:35 145.980
CUBEBUG 2 29 Aug 23:44:05 23:46:59 16° 272° (W) 23:49:44 437.445
NANOSAT C BR1 29 Aug 23:44:39 23:45:35 11° 86° (E) 23:46:47 145.865
AUBIESAT-1 29 Aug 23:44:40 23:47:09 16° 94° (E) 23:49:38 437.475
M-CUBED/EXP-1 PRIME 29 Aug 23:47:21 23:50:26 21° 96° (E) 23:53:24 437.505
TIGRISAT 29 Aug 23:49:36 23:53:48 34° 96° (E) 23:57:56 435.000
ZACube-1 29 Aug 23:53:24 23:56:44 19° 270° (W) 00:00:00 437.345
UWE-3 29 Aug 23:56:00 23:58:43 15° 273° (W) 00:01:16 435.000/436.395/437.385
QB50P1 29 Aug 23:56:04 23:58:31 15° 89° (E) 00:01:07 145.935-145.965
50 SAT 29 Aug 23:58:34 00:02:32 77° 258° (WSW) 00:06:31 437.505
FUNcube-1 30 Aug 00:00:11 00:03:15 17° 271° (W) 00:06:12 145.935
ANTELSAT 30 Aug 00:05:32 00:10:04 52° 99° (E) 00:14:27 437.575/2403.000
RS-15 30 Aug 00:16:46 00:27:16 38° 27° (NNE) 00:38:19 29.354- 29.394
ESTCUBE 1 30 Aug 00:29:54 00:34:21 60° 260° (W) 00:38:49 437.505/2401.250
DX 1 30 Aug 00:39:25 00:42:54 23° 267° (W) 00:46:18 434.975-435.025
TISAT 1 30 Aug 00:40:36 00:44:09 28° 68° (ENE) 00:47:47 437.305
AISAT 30 Aug 00:52:16 00:56:00 26° 266° (W) 00:59:41 437.250
BEESAT 3 30 Aug 00:53:05 00:57:03 53° 50° (NE) 01:00:58 437.485
POLYITAN 1 30 Aug 00:55:03 00:59:21 64° 101° (E) 01:03:37 437.675
UKube-1 30 Aug 00:56:13 00:59:09 17° 269° (W) 01:01:57 .
UNISAT 6 30 Aug 00:56:36 01:01:04 48° 289° (WNW) 01:05:25 437.425
SWISSCUBE 30 Aug 00:56:48 00:57:31 10° 57° (ENE) 00:58:29 437.505
YUBILEINY 30 Aug 00:58:16 01:04:21 19° 305° (NW) 01:10:04 435.215
POPSAT HIP 1 30 Aug 00:58:32 01:02:51 69° 102° (ESE) 01:07:08 437.405
CUBEBUG 1 30 Aug 00:59:19 01:03:18 35° 263° (W) 01:07:17 437.445
DUCHIFAT 1 30 Aug 01:01:01 01:05:19 70° 102° (ESE) 01:09:34 145.980
BEESAT 2 30 Aug 01:01:50 01:05:49 49° 50° (NE) 01:09:45 435.950
SPROUT 30 Aug 01:02:50 01:07:07 80° 77° (ENE) 01:11:27 437.525
CUSAT 1 30 Aug 01:11:14 01:14:49 44° 92° (E) 01:19:37 437.405
QB50P2 30 Aug 01:14:57 01:19:16 77° 285° (WNW) 01:23:33 145.880/145.840
NANOSAT C BR1 30 Aug 01:17:43 01:22:02 76° 286° (WNW) 01:26:18 145.865
BUGSAT 1 30 Aug 01:18:18 01:22:33 69° 102° (ESE) 01:26:47 437.445
AUBIESAT-1 30 Aug 01:18:19 01:22:13 43° 295° (WNW) 01:25:47 437.475
M-CUBED/EXP-1 PRIME 30 Aug 01:21:36 01:25:24 34° 297° (WNW) 01:28:52 437.505
VELOX 1 30 Aug 01:22:49 01:25:15 14° 271° (W) 01:27:29 145.980
AIST 2 30 Aug 01:23:23 01:26:45 23° 40° (NE) 01:30:07 435.215
DANDE 30 Aug 01:23:59 01:27:03 32° 90° (E) 01:31:00 436.750
TIGRISAT 30 Aug 01:26:32 01:30:26 27° 293° (WNW) 01:34:11 435.000
QB50P1 30 Aug 01:30:32 01:34:46 54° 287° (WNW) 01:38:57 145.935-145.965
ITUPSAT 1 30 Aug 01:31:15 01:34:36 20° 63° (ENE) 01:38:06 437.325
Cosmos 2504 30 Aug 01:31:38 01:39:40 61° 284° (WNW) 01:48:09 435.465 / 435.565
ANTELSAT 30 Aug 01:43:10 01:46:28 19° 297° (WNW) 01:49:35 437.575/2403.000
Oscar 19 30 Aug 01:47:52 01:49:09 11° 85° (E) 01:50:46 437.125/150
BEESAT 30 Aug 02:04:37 02:09:01 39° 69° (ENE) 02:13:29 436.000
TISAT 1 30 Aug 02:16:11 02:19:52 28° 265° (W) 02:23:32 437.305
PCSat 30 Aug 02:20:37 02:24:04 18° 107° (ESE) 02:27:44 145.827
RS-15 30 Aug 02:29:40 02:41:32 88° 56° (NE) 02:53:50 29.354- 29.394
SWISSCUBE 30 Aug 02:29:51 02:34:37 75° 73° (ENE) 02:39:24 437.505
BEESAT 3 30 Aug 02:31:59 02:34:36 16° 248° (WSW) 02:37:05 437.485
POLYITAN 1 30 Aug 02:32:21 02:34:47 15° 298° (WNW) 02:37:03 437.675
POPSAT HIP 1 30 Aug 02:35:58 02:38:13 14° 298° (WNW) 02:40:18 437.405
DUCHIFAT 1 30 Aug 02:38:27 02:40:36 13° 298° (WNW) 02:42:35 145.980
BEESAT 2 30 Aug 02:40:43 02:43:32 18° 247° (WSW) 02:46:12 435.950
SO-50 30 Aug 02:41:45 02:46:26 55° 120° (ESE) 02:51:16 436.795
SPROUT 30 Aug 02:43:22 02:43:52 10° 274° (W) 02:44:05 437.525
CUSAT 1 30 Aug 02:55:01 02:58:00 18° 302° (WNW) 03:01:23 437.405
BUGSAT 1 30 Aug 02:55:21 02:57:31 14° 298° (WNW) 02:59:32 437.445
AIST 2 30 Aug 03:01:31 03:05:35 50° 240° (WSW) 03:09:34 435.215
ITUPSAT 1 30 Aug 03:07:28 03:12:09 54° 260° (W) 03:16:51 437.325
DANDE 30 Aug 03:07:55 03:10:33 18° 300° (WNW) 03:13:33 436.750
Oscar 19 30 Aug 03:24:10 03:29:25 85° 102° (ESE) 03:34:38 437.125/150
Cosmos 2504 30 Aug 03:29:55 03:34:11 14° 309° (NW) 03:38:04 435.465 / 435.565
STARS 30 Aug 03:36:07 03:40:04 34° 68° (ENE) 03:44:05 437.465
BEESAT 30 Aug 03:43:03 03:47:01 25° 267° (W) 03:50:54 436.000
JAS-2 30 Aug 03:44:03 03:49:44 26° 87° (E) 03:55:05 435.910
GONETS M04 30 Aug 03:44:14 03:52:31 54° 90° (E) 04:00:56
Gurwin Techsat 1B 30 Aug 03:48:39 03:53:46 47° 98° (E) 03:58:53 435.225
KKS-1 30 Aug 03:49:00 03:53:26 75° 74° (ENE) 03:57:55 437.445
MOZHAYETS 4 30 Aug 03:49:19 03:51:19 13° 61° (ENE) 03:53:30
PCSat 30 Aug 04:01:33 04:06:58 72° 303° (WNW) 04:12:25 145.827
Cosmos 2499 30 Aug 04:06:40 04:12:14 21° 78° (ENE) 04:18:22 435.465 / 435.565
SWISSCUBE 30 Aug 04:10:45 04:13:06 13° 273° (W) 04:15:11 437.505
ITAMSAT 1 30 Aug 04:18:29 04:23:40 70° 102° (ESE) 04:28:51 435.822/435.867
SO-50 30 Aug 04:23:07 04:27:18 27° 321° (NW) 04:31:30 436.795
O/OREOS (USA 219) 30 Aug 04:33:30 04:35:33 13° 45° (NE) 04:37:46 437.305
RS-15 30 Aug 04:43:17 04:52:54 28° 256° (WSW) 05:02:14 29.354- 29.394
HORYU 2 30 Aug 04:50:20 04:53:28 19° 91° (E) 04:56:41 437.375
Oscar 19 30 Aug 05:05:09 05:08:08 15° 301° (WNW) 05:10:56 437.125/150
STARS 30 Aug 05:12:51 05:16:34 26° 266° (W) 05:20:14 437.465
AO-7 30 Aug 05:13:46 05:21:33 43° 98° (E) 05:29:22 29.400- 29.500
MOZHAYETS 4 30 Aug 05:23:20 05:27:58 82° 259° (WSW) 05:32:36
JAS-2 30 Aug 05:28:19 05:35:29 63° 290° (WNW) 05:41:48 435.910
KKS-1 30 Aug 05:28:58 05:30:42 12° 273° (W) 05:32:11 437.445
Gurwin Techsat 1B 30 Aug 05:29:08 05:33:32 26° 296° (WNW) 05:37:49 435.225
CUBESAT XI-V 30 Aug 05:37:01 05:39:29 15° 62° (ENE) 05:42:08 437.345
GONETS M04 30 Aug 05:41:48 05:49:45 37° 292° (WNW) 05:57:38
PCSat 30 Aug 05:47:54 05:51:25 17° 326° (NW) 05:54:49 145.827
Cosmos 2499 30 Aug 05:55:48 06:04:16 89° 106° (ESE) 06:13:13 435.465 / 435.565
ITAMSAT 1 30 Aug 05:59:11 06:02:41 18° 300° (WNW) 06:06:01 435.822/435.867
O/OREOS (USA 219) 30 Aug 06:11:10 06:15:49 84° 66° (ENE) 06:20:24 437.305
STRAND 1 30 Aug 06:17:46 06:20:03 13° 58° (ENE) 06:22:33 437.568
HORYU 2 30 Aug 06:26:05 06:30:23 46° 289° (WNW) 06:34:37 437.375
VERMONT LUNAR 30 Aug 06:32:22 06:34:56 26° 167° (SSE) 06:37:30 437.305
PRISM 30 Aug 06:53:30 06:55:49 15° 63° (ENE) 06:58:16 437.425
AO-7 30 Aug 07:06:36 07:14:29 48° 298° (WNW) 07:22:16 29.400- 29.500
YUBILEINY 30 Aug 07:10:31 07:14:05 13° 49° (NE) 07:18:13 435.215
CUBESAT XI-V 30 Aug 07:11:51 07:16:26 69° 259° (W) 07:21:03 437.345
JAS-2 30 Aug 07:15:25 07:19:05 14° 311° (NW) 07:22:17 435.910
Cubesat XI-IV 30 Aug 07:22:32 07:27:06 29° 94° (E) 07:31:44 437.490
Cosmos 2499 30 Aug 07:52:16 07:58:54 23° 302° (WNW) 08:05:24 435.465 / 435.565
O/OREOS (USA 219) 30 Aug 07:53:23 07:54:36 11° 262° (W) 07:55:34 437.305
STRAND 1 30 Aug 07:53:28 07:58:34 87° 77° (ENE) 08:03:43 437.568
BRITE-PL 30 Aug 07:54:07 07:56:26 13° 85° (E) 07:59:06 437.365/2234.400
CUTE-I 30 Aug 08:07:39 08:12:59 72° 102° (ESE) 08:18:18 437.470
VERMONT LUNAR 30 Aug 08:08:17 08:11:01 33° 184° (S) 08:13:45 437.305
PHONESAT 2.4 30 Aug 08:16:16 08:19:03 24° 163° (SSE) 08:21:52 2401.200-2431.200
PRISM 30 Aug 08:26:50 08:30:51 54° 259° (W) 08:34:54 437.425
GOMX 1 30 Aug 08:31:44 08:35:12 18° 87° (E) 08:38:54 467.674
AIST 1 30 Aug 08:32:43 08:35:41 19° 88° (E) 08:38:46
DOVE 4 30 Aug 08:54:25 08:57:44 17° 87° (E) 09:01:16 437.250
AO-7 30 Aug 09:01:49 09:05:25 13° 320° (NW) 09:08:41 29.400- 29.500
Cubesat XI-IV 30 Aug 09:02:22 09:07:21 40° 292° (WNW) 09:12:16 437.490
YUBILEINY 30 Aug 09:04:46 09:13:29 58° 75° (ENE) 09:22:09 435.215
CANX-2 30 Aug 09:04:47 09:06:19 12° 87° (E) 09:08:05 2200.000
Cosmos 2504 30 Aug 09:26:30 09:29:26 12° 48° (NE) 09:32:53 435.465 / 435.565
SEEDS 30 Aug 09:28:44 09:31:13 16° 89° (E) 09:33:51 437.485
BRITE-PL 30 Aug 09:30:15 09:35:42 87° 100° (E) 09:41:24 437.365/2234.400
SO-50 30 Aug 09:31:40 09:35:07 19° 32° (NNE) 09:38:38 436.795
STRAND 1 30 Aug 09:36:28 09:38:35 12° 274° (W) 09:40:25 437.568
VERMONT LUNAR 30 Aug 09:44:55 09:47:01 17° 200° (SSW) 09:49:05 437.305
CUTE-I 30 Aug 09:48:57 09:52:34 18° 300° (WNW) 09:56:01 437.470
CINEMA 3 30 Aug 09:52:34 09:56:42 26° 92° (E) 10:00:49 145.822/145.860
COMPASS 1 30 Aug 09:53:04 09:56:19 22° 93° (E) 09:59:37 437.405
PHONESAT 2.4 30 Aug 09:53:21 09:56:32 38° 179° (S) 09:59:44 2401.200-2431.200
Cosmos 2491 30 Aug 09:53:55 10:02:13 53° 90° (E) 10:10:36 435.465 / 435.565
CUBEBUG 2 30 Aug 09:56:37 09:58:20 12° 85° (E) 10:00:17 437.445
CUSAT 1 30 Aug 10:02:37 10:05:44 13° 54° (NE) 10:09:29 437.405
AAUSAT CUBESAT 2 30 Aug 10:04:45 10:08:09 25° 94° (E) 10:11:37 437.432
UWE-3 30 Aug 10:07:26 10:09:00 12° 85° (E) 10:10:48 435.000/436.395/437.385
GOMX 1 30 Aug 10:08:27 10:13:51 71° 286° (WNW) 10:19:20 467.674
AIST 1 30 Aug 10:09:06 10:13:05 38° 285° (WNW) 10:17:05
HO-68 30 Aug 10:14:19 10:21:27 61° 102° (ESE) 10:28:34 435.675
DANDE 30 Aug 10:18:17 10:20:18 11° 54° (NE) 10:22:55 436.750
UNISAT 6 30 Aug 10:21:24 10:25:00 23° 65° (ENE) 10:28:44 437.425
ISS 30 Aug 10:23:17 10:26:06 28° 140° (SE) 10:28:57 145.825
CUTE 1.7 + AOD 2 30 Aug 10:24:47 10:29:02 79° 102° (ESE) 10:33:15 437.475
DOVE 4 30 Aug 10:30:43 10:36:01 70° 286° (WNW) 10:41:18 437.250
AUBIESAT-1 30 Aug 10:32:05 10:36:25 36° 64° (ENE) 10:40:41 437.475
M-CUBED/EXP-1 PRIME 30 Aug 10:35:24 10:39:58 45° 65° (ENE) 10:44:29 437.505
QB50P2 30 Aug 10:36:52 10:38:19 12° 61° (ENE) 10:39:58 145.880/145.840
CANX-2 30 Aug 10:38:33 10:42:47 66° 285° (WNW) 10:46:57 2200.000
NANOSAT C BR1 30 Aug 10:39:15 10:40:43 12° 61° (ENE) 10:42:22 145.865
DELFI C3 30 Aug 10:41:43 10:44:26 18° 91° (E) 10:47:14 145.870
TIGRISAT 30 Aug 10:49:49 10:54:08 39° 70° (ENE) 10:58:34 435.000
QB50P1 30 Aug 10:51:01 10:53:31 16° 63° (ENE) 10:56:11 145.935-145.965
Oscar 11 30 Aug 10:59:21 11:03:30 44° 98° (E) 11:07:38 145.826/435.025
YUBILEINY 30 Aug 11:02:14 11:09:56 34° 275° (W) 11:17:25 435.215
SEEDS 30 Aug 11:03:17 11:07:20 49° 288° (WNW) 11:11:22 437.485
HUMSAT D 30 Aug 11:03:39 11:05:28 13° 87° (E) 11:07:28 437.325/437.525
PCSat 30 Aug 11:04:38 11:09:11 27° 43° (NE) 11:13:47 145.827
ANTELSAT 30 Aug 11:05:52 11:10:27 59° 73° (ENE) 11:15:08 437.575/2403.000
BRITE-PL 30 Aug 11:10:18 11:13:38 16° 299° (WNW) 11:16:52 437.365/2234.400
SO-50 30 Aug 11:11:28 11:16:28 83° 54° (NE) 11:21:19 436.795
Cosmos 2504 30 Aug 11:15:50 11:24:13 55° 74° (ENE) 11:32:11 435.465 / 435.565
COMPASS 1 30 Aug 11:28:18 11:32:04 34° 290° (WNW) 11:35:48 437.405
CINEMA 3 30 Aug 11:29:17 11:34:02 42° 290° (WNW) 11:38:39 145.822/145.860
CUBEBUG 2 30 Aug 11:30:58 11:35:43 78° 285° (WNW) 11:40:20 437.445
PHONESAT 2.4 30 Aug 11:31:07 11:34:02 26° 196° (SSW) 11:36:57 2401.200-2431.200
50 SAT 30 Aug 11:34:38 11:34:54 10° 87° (E) 11:35:24 437.505
ZACube-1 30 Aug 11:38:31 11:43:05 77° 102° (ESE) 11:47:31 437.345
AAUSAT CUBESAT 2 30 Aug 11:40:07 11:43:46 30° 291° (WNW) 11:47:21 437.432
UWE-3 30 Aug 11:41:33 11:46:13 78° 285° (WNW) 11:50:43 435.000/436.395/437.385
CUSAT 1 30 Aug 11:42:33 11:49:54 56° 74° (ENE) 11:58:01 437.405
FUNcube-1 30 Aug 11:44:43 11:49:16 86° 102° (ESE) 11:53:42 145.935
GOMX 1 30 Aug 11:48:59 11:51:09 12° 302° (WNW) 11:53:04 467.674
POLYITAN 1 30 Aug 11:49:35 11:53:48 62° 74° (ENE) 11:58:04 437.675
Cosmos 2491 30 Aug 11:51:27 11:59:27 38° 292° (WNW) 12:07:21 435.465 / 435.565
POPSAT HIP 1 30 Aug 11:52:52 11:57:04 65° 74° (ENE) 12:01:20 437.405
DUCHIFAT 1 30 Aug 11:54:52 11:59:03 66° 74° (ENE) 12:03:18 145.980
UNISAT 6 30 Aug 11:57:02 12:01:31 44° 262° (W) 12:06:03 437.425
DANDE 30 Aug 11:58:01 12:05:00 52° 74° (ENE) 12:13:11 436.750
ISS 30 Aug 11:59:13 12:02:23 49° 337° (NNW) 12:05:33 145.825
HO-68 30 Aug 12:02:39 12:08:49 31° 301° (WNW) 12:14:51 435.675
CUTE 1.7 + AOD 2 30 Aug 12:02:50 12:04:22 12° 299° (WNW) 12:05:44 437.475
AUBIESAT-1 30 Aug 12:06:56 12:11:06 29° 260° (W) 12:15:11 437.475
QB50P2 30 Aug 12:09:21 12:13:37 81° 257° (WSW) 12:17:56 145.880/145.840
BUGSAT 1 30 Aug 12:10:01 12:14:01 60° 74° (ENE) 12:18:06 437.445
M-CUBED/EXP-1 PRIME 30 Aug 12:10:56 12:14:52 24° 262° (W) 12:18:41 437.505
DOVE 4 30 Aug 12:11:06 12:12:55 11° 303° (WNW) 12:14:29 437.250
NANOSAT C BR1 30 Aug 12:11:43 12:15:58 80° 256° (WSW) 12:20:15 145.865
DELFI C3 30 Aug 12:15:57 12:19:41 39° 289° (WNW) 12:23:23 145.870
ESTCUBE 1 30 Aug 12:21:00 12:24:37 24° 93° (E) 12:28:19 437.505/2401.250
DX 1 30 Aug 12:24:33 12:28:50 51° 100° (E) 12:33:07 434.975-435.025
QB50P1 30 Aug 12:24:47 12:28:58 56° 260° (W) 12:33:11 145.935-145.965
TIGRISAT 30 Aug 12:27:10 12:31:01 24° 268° (W) 12:34:50 435.000
Oscar 11 30 Aug 12:36:14 12:39:25 20° 295° (WNW) 12:42:28 145.826/435.025
HUMSAT D 30 Aug 12:37:28 12:41:42 62° 286° (WNW) 12:45:50 437.325/437.525
UKube-1 30 Aug 12:39:45 12:44:06 68° 102° (ESE) 12:48:25 .
AISAT 30 Aug 12:39:54 12:44:17 50° 100° (E) 12:48:39 437.250
ANTELSAT 30 Aug 12:44:35 12:47:40 17° 271° (W) 12:50:35 437.575/2403.000
CUBEBUG 1 30 Aug 12:45:45 12:49:48 35° 97° (E) 12:53:52 437.445
PCSat 30 Aug 12:47:40 12:53:01 59° 243° (WSW) 12:58:19 145.827
SPROUT 30 Aug 12:49:20 12:51:05 12° 87° (E) 12:53:02 437.525
SO-50 30 Aug 12:53:43 12:56:24 14° 251° (WSW) 12:58:50 436.795
Oscar 19 30 Aug 13:05:22 13:09:11 22° 62° (ENE) 13:13:09 437.125/150
50 SAT 30 Aug 13:06:05 13:09:57 66° 285° (WNW) 13:13:45 437.505
Cosmos 2504 30 Aug 13:08:33 13:16:08 36° 275° (W) 13:23:13 435.465 / 435.565
VELOX 1 30 Aug 13:08:33 13:13:03 86° 284° (WNW) 13:17:31 145.980
CUBEBUG 2 30 Aug 13:10:24 13:11:38 11° 302° (WNW) 13:12:35 437.445
ZACube-1 30 Aug 13:16:34 13:18:51 13° 299° (WNW) 13:20:55 437.345
UWE-3 30 Aug 13:21:11 13:21:57 10° 302° (WNW) 13:22:28 435.000/436.395/437.385
FUNcube-1 30 Aug 13:23:07 13:24:56 12° 300° (WNW) 13:26:33 145.935
CUSAT 1 30 Aug 13:25:27 13:32:19 37° 270° (W) 13:39:33 437.405
POLYITAN 1 30 Aug 13:28:00 13:30:11 13° 272° (W) 13:32:10 437.675
POPSAT HIP 1 30 Aug 13:31:32 13:33:28 12° 273° (W) 13:35:12 437.405
DUCHIFAT 1 30 Aug 13:33:33 13:35:23 12° 273° (W) 13:37:01 145.980
Gurwin Techsat 1B 30 Aug 13:35:05 13:37:41 14° 58° (ENE) 13:40:30 435.225
ISS 30 Aug 13:36:31 13:39:16 24° 357° (N) 13:42:01 145.825
DANDE 30 Aug 13:41:21 13:48:05 39° 268° (W) 13:55:38 436.750
BUGSAT 1 30 Aug 13:48:07 13:49:57 12° 272° (W) 13:51:38 437.445
GONETS M04 30 Aug 13:51:57 13:59:20 30° 64° (ENE) 14:06:56
ESTCUBE 1 30 Aug 13:57:27 14:01:36 36° 291° (WNW) 14:05:42 437.505/2401.250
TISAT 1 30 Aug 13:57:59 14:01:58 37° 97° (E) 14:05:57 437.305
JAS-2 30 Aug 13:58:21 14:03:24 20° 54° (NE) 14:08:44 435.910
ITAMSAT 1 30 Aug 14:01:07 14:04:38 19° 61° (ENE) 14:08:17 435.822/435.867
DX 1 30 Aug 14:01:43 14:04:45 18° 297° (WNW) 14:07:38 434.975-435.025
AISAT 30 Aug 14:17:18 14:20:31 19° 296° (WNW) 14:23:36 437.250
UKube-1 30 Aug 14:17:22 14:19:44 14° 299° (WNW) 14:21:56 .
CUBEBUG 1 30 Aug 14:22:23 14:26:01 25° 293° (WNW) 14:29:35 437.445
SPROUT 30 Aug 14:23:22 14:27:42 67° 285° (WNW) 14:32:00 437.525
AO-7 30 Aug 14:26:10 14:31:18 19° 46° (NE) 14:36:42 29.400- 29.500
SWISSCUBE 30 Aug 14:29:23 14:32:17 16° 89° (E) 14:35:21 437.505
Oscar 19 30 Aug 14:43:07 14:48:11 56° 260° (W) 14:53:19 437.125/150
VELOX 1 30 Aug 14:47:42 14:48:56 11° 301° (WNW) 14:49:58 145.980
ITUPSAT 1 30 Aug 15:06:09 15:10:27 33° 96° (E) 15:14:45 437.325
Gurwin Techsat 1B 30 Aug 15:11:38 15:16:57 87° 78° (ENE) 15:22:20 435.225
ISS 30 Aug 15:13:14 15:16:15 34° 17° (NNE) 15:19:17 145.825
TISAT 1 30 Aug 15:34:09 15:37:32 23° 294° (WNW) 15:40:50 437.305
ITAMSAT 1 30 Aug 15:38:33 15:43:41 65° 258° (WSW) 15:48:52 435.822/435.867
JAS-2 30 Aug 15:39:40 15:47:19 76° 73° (ENE) 15:55:13 435.910
KKS-1 30 Aug 15:39:59 15:41:51 13° 87° (E) 15:43:56 437.445
BEESAT 30 Aug 15:40:05 15:44:52 72° 103° (ESE) 15:49:36 436.000
Cosmos 2499 30 Aug 15:45:23 15:53:26 40° 68° (ENE) 16:01:08 435.465 / 435.565
GONETS M04 30 Aug 15:48:17 15:57:01 68° 266° (W) 16:05:43
HORYU 2 30 Aug 15:50:21 15:53:53 24° 65° (ENE) 15:57:31 437.375
SWISSCUBE 30 Aug 16:05:54 16:10:36 60° 288° (WNW) 16:15:16 437.505
AO-7 30 Aug 16:14:31 16:22:46 69° 67° (ENE) 16:31:03 29.400- 29.500
BEESAT 3 30 Aug 16:24:27 16:28:23 51° 120° (ESE) 16:32:22 437.485
BEESAT 2 30 Aug 16:34:21 16:38:17 49° 120° (ESE) 16:42:17 435.950
ITUPSAT 1 30 Aug 16:44:07 16:48:17 30° 293° (WNW) 16:52:22 437.325
ISS 30 Aug 16:49:34 16:52:45 52° 215° (SW) 16:55:55 145.825
Gurwin Techsat 1B 30 Aug 16:55:18 16:57:47 13° 274° (W) 16:59:57 435.225
RS-15 30 Aug 16:55:57 17:06:00 46° 111° (ESE) 17:16:33 29.354- 29.394
STARS 30 Aug 16:59:35 17:03:56 49° 99° (E) 17:08:15 437.465
AIST 2 30 Aug 17:01:42 17:04:51 21° 114° (ESE) 17:08:07 435.215
KKS-1 30 Aug 17:14:34 17:19:04 71° 286° (WNW) 17:23:31 437.445
MOZHAYETS 4 30 Aug 17:17:16 17:20:37 20° 91° (E) 17:24:04
BEESAT 30 Aug 17:19:21 17:22:11 15° 299° (WNW) 17:24:50 436.000
HORYU 2 30 Aug 17:26:06 17:30:20 39° 262° (W) 17:34:34 437.375
JAS-2 30 Aug 17:26:54 17:33:08 25° 273° (W) 17:39:15 435.910
Cosmos 2499 30 Aug 17:38:32 17:46:54 51° 271° (W) 17:54:41 435.465 / 435.565
GONETS M04 30 Aug 17:48:17 17:52:21 13° 286° (WNW) 17:55:48
CUTE-I 30 Aug 17:53:26 17:57:17 21° 62° (ENE) 18:01:17 437.470
BEESAT 3 30 Aug 18:03:21 18:06:35 22° 320° (NW) 18:09:47 437.485
AO-7 30 Aug 18:09:09 18:16:16 29° 267° (W) 18:23:11 29.400- 29.500
BEESAT 2 30 Aug 18:13:15 18:16:34 23° 319° (NW) 18:19:51 435.950
STARS 30 Aug 18:36:51 18:40:03 19° 296° (WNW) 18:43:06 437.465
AIST 2 30 Aug 18:39:02 18:43:09 47° 311° (NW) 18:47:17 435.215
Cubesat XI-IV 30 Aug 18:46:20 18:51:31 58° 71° (ENE) 18:56:46 437.490
MOZHAYETS 4 30 Aug 18:53:44 18:58:05 44° 289° (WNW) 19:02:23
